Location: Bas-Clignon
(44.2000°N, 6.6333°E)
Time: 03:16:45
(UTC+00:00)

Cosmos 2360 Rocket - Pass Details

Date: 03 February 2023
Orbit: 832 x 846 km, 71.0° (Epoch: 27 March)

Event Time Altitude Azimuth Distance (km) Brightness Sun altitude
Rises 19:46:38 0° 246° (WSW) 3,381 6.1 -32.6°
Reaches altitude 10° 19:49:38 10° 262° (W) 2,453 5.4 -33.2°
Maximum altitude 19:53:55 22° 312° (NW) 1,768 4.3 -33.9°
Enters shadow 19:57:10 14° 353° (N) 2,195 4.5 -34.5°
